Home > Weather > Altstätten > Past weeks

Flag for Switzerland Weather for the Past 2 Weeks in Altstätten, St. Gallen, Switzerland

Now
43 °F

Clear.


Feels Like: 39 °F
Forecast: 40 / 52 °F
Wind: 7 mph from South

Location: Saint Gallen-Altenrhein

Current Time: Feb 8, 2016 at 4:10:42 AM

Latest Report: Feb 8, 2016 at 3:20 AM


Visibility: 10 mi

Pressure: 29.89 "Hg

Humidity: 71%

Dew point: 34 °F

Location of AltstättenLocation

Historic Weather in Altstätten — Graph

°F

Altstätten Temperature Yesterday

Maximum temperature yesterday: 61 °F (at 10:20 AM)
Minimum temperature yesterday: 41 °F (at 2:20 AM)
Average temperature yesterday: 52 °F

High & Low Weather Summary for the Past Weeks

 TemperatureHumidityPressure
High61 °F (Feb 7, 10:20 AM)100% (Jan 24, 2:20 AM)30.57 "Hg (Jan 24, 2:20 AM)
Low30 °F (Jan 25, 6:20 AM)29% (Feb 6, 10:50 PM)29.56 "Hg (Feb 7, 10:20 AM)
Average42 °F85%30.24 "Hg
* Reported Jan 24 2:20 AM — Feb 8 2:50 AM, Altstätten, Weather by CustomWeather, © 2016

Note: Actual official high and low records may vary slightly from our data, if they occured in-between our weather recording intervals... More about our weather records

Advertising

Altstätten Weather History for the Previous 24 Hours

 ConditionsComfort  
Time TempWeatherWind HumidityBarometerVisibility
2:50 AM
Mon, Feb 8
43 °FPassing clouds.5 mph71%29.89 "HgN/A
2:20 AM43 °FPassing clouds.8 mph71%29.89 "HgN/A
1:50 AM45 °FPassing clouds.8 mph71%29.92 "HgN/A
1:20 AM45 °FClear.3 mph61%29.92 "Hg10 mi
12:50 AM41 °FPassing clouds.3 mph87%29.92 "HgN/A
12:20 AM41 °FClear.7 mph87%29.95 "Hg10 mi
11:50 PM
Sun, Feb 7
43 °FClear.3 mph76%29.95 "Hg10 mi
11:20 PM41 °FClear.7 mph87%29.92 "Hg10 mi
10:50 PM43 °FClear.5 mph81%29.92 "HgN/A
10:20 PM43 °FOvercast.7 mph71%29.92 "HgN/A
9:50 PM41 °FOvercast.5 mph93%29.95 "HgN/A
9:20 PM41 °FPassing clouds.3 mph93%29.95 "HgN/A
8:50 PM41 °FLight rain. Passing clouds.3 mph93%29.92 "HgN/A
8:20 PM41 °FLight rain. Passing clouds.5 mph93%29.92 "HgN/A
7:50 PM43 °FLight rain. Passing clouds.3 mph81%29.92 "HgN/A
7:20 PM45 °FPassing clouds.9 mph81%29.89 "HgN/A
6:50 PM46 °FPartly cloudy.6 mph62%29.86 "HgN/A
6:20 PM45 °FPartly cloudy.8 mph71%29.86 "HgN/A
5:50 PM45 °FPartly cloudy.12 mph71%29.83 "HgN/A
5:20 PM46 °FBroken clouds.18 mph66%29.83 "HgN/A
4:20 PM48 °FBroken clouds.15 mph62%29.77 "HgN/A
3:50 PM48 °FPartly sunny.15 mph71%29.77 "HgN/A
3:20 PM48 °FPartly sunny.17 mph71%29.74 "HgN/A
2:50 PM50 °FPartly sunny.25 mph67%29.71 "HgN/A
2:20 PM50 °FPartly sunny.21 mph67%29.68 "HgN/A
1:50 PM50 °FPartly sunny.21 mph67%29.68 "HgN/A
1:20 PM46 °FPassing clouds.14 mph71%29.65 "HgN/A
12:50 PM46 °FPassing clouds.14 mph66%29.62 "HgN/A
12:20 PM61 °FPassing clouds.23 mph29%29.59 "HgN/A
11:50 AM59 °FPassing clouds.22 mph31%29.59 "HgN/A
11:20 AM59 °FPassing clouds.23 mph31%29.59 "HgN/A
10:50 AM59 °FPassing clouds.23 mph29%29.56 "HgN/A
10:20 AM61 °FPassing clouds.24 mph29%29.56 "HgN/A
9:50 AM59 °FPassing clouds.24 mph29%29.59 "HgN/A
9:20 AM59 °FPassing clouds.23 mph31%29.59 "HgN/A
8:50 AM59 °FPassing clouds.33 mph31%29.62 "HgN/A
8:20 AM59 °FPassing clouds.24 mph34%29.62 "HgN/A
7:50 AM59 °FPassing clouds.23 mph31%29.59 "HgN/A
7:20 AM59 °FPassing clouds.20 mph29%29.62 "HgN/A
6:50 AM59 °FPassing clouds.25 mph29%29.62 "HgN/A
6:20 AM59 °FPassing clouds.22 mph29%29.65 "HgN/A
5:50 AM59 °FPassing clouds.20 mph29%29.68 "HgN/A
5:20 AM59 °FPassing clouds.21 mph31%29.68 "HgN/A
4:20 AM59 °FPassing clouds.22 mph29%29.68 "HgN/A
Weather by CustomWeather, © 2016

See weather overviewHow to use our weather pages